Regional Weather Roundup
Issued by NWS Kansas City/Pleasant Hill, MO

Home | Current Version | Previous Version | Text Only | Print | Product List | Glossary On
Versions: 1 2 3 4 5 6 7 8 9 10 11 12 13 14 15 16 17 18 19 20 21 22 23 24 25 26 27 28 29 30 31 32 33 34 35 36 37 38 39 40 41 42 43 44 45 46 47 48 49 50
000
ASUS43 KEAX 271304
RWREAX

WEATHER ROUNDUP FOR EASTERN KANSAS AND NORTHWEST MISSOURI
NATIONAL WEATHER SERVICE KANSAS CITY/PLEASANT HILL MO
700 AM CST THU NOV 27 2014

KSZ040-057-103>105-MOZ028-029-037-043-271400-
...KANSAS CITY METROPOLITAN AREA...

CITY           SKY/WX    TMP DP  RH WIND       PRES   REMARKS
K.C. INTL      CLOUDY    24  19  81 N9        30.50R WCI  14
K.C. DOWNTOWN  CLOUDY    27  19  72 N9        30.51R WCI  18
LEES SUMMIT    CLOUDY    26  20  77 N9        30.48S WCI  17
OLATHE - IXD   CLOUDY    23  20  88 NW6       30.50R WCI  16
OLATHE - OJC   MOCLDY    24  19  81 NW6       30.48R WCI  17
LAWRENCE       CLOUDY    24  18  77 N5        30.52R HAZE    WCI  18

$$

MOZ001>008-011>017-020>025-030>033-038>040-044>046-053-054-271400-
...NORTHERN AND CENTRAL MISSOURI...

CITY           SKY/WX    TMP DP  RH WIND       PRES   REMARKS
ST. JOSEPH     CLOUDY    23  17  78 N6        30.53R WCI  16
MOSBY          CLOUDY    28  21  74 N8        30.51R WCI  20
WARRENSBURG    CLOUDY    27  21  80 N9        30.50R WCI  17
WHITEMAN AFB   CLOUDY    26  22  82 N10       30.49R WCI  16
CLINTON        CLOUDY    30  27  86 N8        30.49S WCI  23
SEDALIA        CLOUDY    28  23  81 NW10      30.50R WCI  19
WARSAW         NOT AVBL
MARSHALL       CLOUDY    30  25  80 NW9       30.51R WCI  22
CHILLICOTHE      N/A     25  19  78 NW7       30.51R WCI  17
MOBERLY        CLOUDY    28  21  74 NW8       30.47R WCI  20
KIRKSVILLE     CLOUDY    23  18  81 N12       30.47R WCI  12

$$

MOZ041-047>049-056>058-063>065-088>090-097-271400-
...EASTERN AND SOUTHERN MISSOURI...

CITY           SKY/WX    TMP DP  RH WIND       PRES   REMARKS
ST. LOUIS INTL CLOUDY    31  25  78 NW13      30.42R WCI  21
SPIRIT OF STL  CLOUDY    30  25  81 NW16G22   30.43R WCI  19
COLUMBIA       CLOUDY    28  25  88 NW15      30.46R WCI  16
JEFFERSON CITY CLOUDY    30  25  81 NW10      30.48R WCI  21
MEXICO         CLOUDY    30  30 100 NW13      30.45R WCI  20
ROLLA          CLOUDY    30  25  81 NW10      30.42R WCI  21
LEBANON        CLOUDY    30  25  80 N6        30.45R WCI  24
OSAGE BEACH    CLOUDY    30  23  74 NW6       30.47R WCI  24
SPRINGFIELD    CLOUDY    30  23  75 N7        30.46R WCI  23
BRANSON        CLOUDY    30  25  80 NW3       30.46R
NEVADA         CLEAR     23  19  86 CALM      30.51R
JOPLIN         CLEAR     23  20  88 CALM      30.49R
WEST PLAINS    CLOUDY    32  25  75 NW10      30.44R WCI  24

$$

IAZ060-094-KSZ022-034>040-054-083-096-NEZ052-066-093-271400-
...KANSAS...SOUTHEAST NEBRASKA AND IOWA...

CITY           SKY/WX    TMP DP  RH WIND       PRES   REMARKS
TOPEKA         CLOUDY    25  19  78 N7        30.53R WCI  17
MANHATTAN      PTCLDY    15  13  91 CALM      30.52R
EMPORIA        PTCLDY    17  15  92 CALM      30.51R
CHANUTE        CLEAR     20  18  92 W5        30.52R WCI  13
WICHITA        PTCLDY    25  17  72 N3        30.50R
OMAHA          PTCLDY    16  11  80 N8        30.52R WCI   5
LINCOLN        CLOUDY    17  10  74 CALM      30.51R
FALLS CITY     CLOUDY    20  15  81 NE6       30.51R WCI  12
LAMONI         CLOUDY    16  12  84 N8        30.48R WCI   5
DES MOINES     PTCLDY     6  -2  69 NW10      30.51R WCI  -9

$$



USA.gov is the U.S. government's official web portal to all federal, state and local government web resources and services.